Flag for Belarus Weather past 2 weeks in Barysaw, Belarus

Now
37 °F

Light rain. Low clouds.


Feels Like: 28 °F
Forecast: 38 / 46 °F
Wind: 15 mph from Southeast

Location: Minsk

Current Time: Mar 30, 2015 at 3:59:53 PM

Latest Report: Mar 30, 2015 at 3:30 PM


Visibility: N/A

Pressure: 29.30 "Hg

Humidity: 100%

Dew point: 37 °F

Location of BarysawLocation

Historic Weather in Barysaw — Graph

°F

Barysaw temperature yesterday

Maximum temperature yesterday: 45 °F (at 12:30 AM)
Minimum temperature yesterday: 30 °F (at 8:30 PM)
Average temperature yesterday: 37 °F

Past Weeks' High & Low Weather Summary

 TemperatureHumidityPressure
High61 °F (Mar 26, 2:00 PM)100% (Mar 19, 7:30 AM)30.95 "Hg (Mar 19, 7:30 AM)
Low16 °F (Mar 23, 3:30 AM)15% (Mar 17, 5:00 PM)29.30 "Hg (Mar 30, 2:00 PM)
Average38 °F65%30.16 "Hg
* Reported Mar 15 3:00 PM — Mar 30 3:00 PM, Barysaw, Weather by CustomWeather, © 2015

Note: Actual official high and low records may vary slightly from our data, if they occured in-between our weather recording intervals... More about our weather records

Advertising

Barysaw weather history for previous 24 hours

 ConditionsComfort  
Time TempWeatherWind HumidityBarometerVisibility
3:00 PM
Mon, Mar 30
37 °FLight rain. Low clouds.15 mph93%29.30 "HgN/A
2:30 PM36 °FLight rain. Low clouds.17 mph100%29.30 "Hg5 mi
2:00 PM36 °FLight rain. Fog.15 mph100%29.30 "Hg2 mi
1:49 PM36 °FDrizzle. Fog.15 mph93%29.33 "Hg2 mi
1:30 PM36 °FLow clouds.13 mph93%29.33 "HgN/A
1:00 PM36 °FSprinkles. Low clouds.15 mph93%29.33 "Hg5 mi
12:30 PM34 °FLight rain. Low clouds.20 mph100%29.33 "Hg6 mi
12:04 PM34 °FLight rain. Low clouds.17 mph100%29.36 "Hg5 mi
11:57 AM34 °FLight snow. Fog.17 mph93%29.36 "Hg3 mi
11:30 AM34 °FLight snow. Mostly cloudy.15 mph93%29.36 "Hg2 mi
11:00 AM34 °FSnow flurries. Overcast.15 mph93%29.39 "Hg1 mi
10:51 AM34 °FSnow flurries. Overcast.15 mph87%29.39 "Hg1 mi
10:30 AM34 °FPartly sunny.15 mph87%29.39 "HgN/A
10:00 AM34 °FPartly sunny.13 mph87%29.42 "HgN/A
9:30 AM32 °FPartly sunny.13 mph93%29.42 "HgN/A
9:00 AM30 °FPartly sunny.10 mph93%29.45 "HgN/A
8:30 AM30 °FPartly sunny.10 mph93%29.45 "HgN/A
8:00 AM30 °FPartly sunny.10 mph93%29.47 "HgN/A
7:30 AM30 °FLow clouds.13 mph93%29.45 "HgN/A
7:00 AM30 °FLow clouds.15 mph93%29.47 "HgN/A
6:30 AM30 °FLow clouds.13 mph93%29.47 "HgN/A
6:00 AM30 °FLow clouds.10 mph93%29.50 "HgN/A
5:30 AM30 °FLow clouds.10 mph93%29.50 "HgN/A
5:00 AM30 °FLow clouds.10 mph93%29.53 "HgN/A
4:30 AM30 °FLow clouds.8 mph93%29.56 "HgN/A
4:00 AM30 °FLow clouds.8 mph93%29.56 "HgN/A
3:30 AM30 °FLow clouds.8 mph93%29.59 "HgN/A
3:00 AM30 °FLow clouds.10 mph93%29.59 "HgN/A
2:30 AM30 °FLight snow. Passing clouds.8 mph93%29.62 "HgN/A
2:00 AM30 °FPassing clouds.10 mph93%29.62 "HgN/A
1:30 AM30 °FPassing clouds.10 mph93%29.65 "HgN/A
1:00 AM30 °FPassing clouds.10 mph93%29.65 "HgN/A
12:30 AM30 °FPassing clouds.8 mph93%29.65 "HgN/A
12:00 AM30 °FPassing clouds.10 mph93%29.68 "HgN/A
11:30 PM
Sun, Mar 29
30 °FLight snow. Mostly cloudy.13 mph93%29.68 "HgN/A
11:00 PM30 °FLight snow. Mostly cloudy.13 mph93%29.71 "HgN/A
10:30 PM30 °FLight snow. Mostly cloudy.10 mph93%29.71 "HgN/A
10:00 PM30 °FLight snow. Overcast.10 mph93%29.74 "HgN/A
9:30 PM30 °FLight snow. Overcast.10 mph93%29.74 "HgN/A
9:00 PM30 °FOvercast.13 mph93%29.74 "HgN/A
8:30 PM30 °FOvercast.13 mph93%29.74 "HgN/A
8:00 PM32 °FOvercast.13 mph87%29.74 "HgN/A
7:30 PM32 °FOvercast.13 mph87%29.74 "HgN/A
7:00 PM32 °FOvercast.10 mph87%29.74 "HgN/A
6:30 PM32 °FOvercast.13 mph80%29.74 "HgN/A
6:00 PM32 °FPartly sunny.15 mph80%29.74 "HgN/A
5:30 PM32 °FPartly sunny.15 mph80%29.77 "HgN/A
5:00 PM32 °FPartly sunny.15 mph87%29.77 "HgN/A
4:30 PM34 °FPartly sunny.15 mph81%29.77 "HgN/A
4:00 PM34 °FSnow flurries. Partly sunny.15 mph87%29.80 "Hg4 mi
3:30 PM34 °FSnow flurries. Partly sunny.15 mph87%29.80 "Hg4 mi
3:00 PM34 °FLight snow. Partly sunny.17 mph87%29.80 "Hg6 mi
Weather by CustomWeather, © 2015

See weather overviewHow to use our weather pages